Location: De Greiden
(52.9496°N, 5.9137°E)
Time: 23:25:50
(UTC+00:00)

Cosmos 1833 Rocket - Pass Details

Date: 24 January 2021
Orbit: 833 x 839 km, 71.0° (Epoch: 01 March)

Event Time Altitude Azimuth Distance (km) Brightness Sun altitude
Rises 16:38:47 0° 327° (NNW) 3,393 5.9 -5.1°
Reaches altitude 10° 16:41:40 10° 341° (NNW) 2,456 5.1 -5.5°
Maximum altitude 16:46:19 26° 36° (NE) 1,612 3.7 -6.2°
Drops below altitude 10° 16:50:56 10° 92° (E) 2,450 4.6 -6.8°
Enters shadow 16:53:10 - 103° (ESE) 3,164 5.2 -7.1°
